Regional Weather Roundup
Issued by NWS

Home | Current Version | Previous Version | Text Only | Print | Product List | Glossary Off
Versions: 1 2 3 4 5 6 7 8 9 10 11 12 13 14 15 16 17 18 19 20 21 22 23 24 25 26 27 28 29 30 31 32 33 34 35 36 37 38 39 40 41 42 43 44 45 46 47 48 49 50

000
ASUS43 KLOT 230303
RWRIL

ILLINOIS REGIONAL WEATHER ROUNDUP
NATIONAL WEATHER SERVICE CHICAGO/ROMEOVILLE IL
900 PM CST MON JAN 22 2018

NOTE: "FAIR" INDICATES FEW OR NO CLOUDS BELOW 12,000 FEET WITH NO
SIGNIFICANT WEATHER AND/OR OBSTRUCTIONS TO VISIBILITY.

* THESE STATIONS ARE NOT UNDER NWS QUALITY CONTROL. THEY ALSO MAY NOT
  REPORT WEATHER SUCH AS PRECIPITATION OR FOG.

ILZ001-002-007-009-015-016-024-230400-
NORTHWEST ILLINOIS

CITY           SKY/WX    TMP DP  RH WIND       PRES   REMARKS
MOLINE         FAIR      31  28  89 SE3       29.51S
STERLING*      CLOUDY    38  32  79 SW5       29.51S WCI  34
SAVANNA*       CLOUDY    38  32  78 SW8       29.50S WCI  32
$$

ILZ003-004-008-010-011-017-018-230400-
NORTH CENTRAL ILLINOIS

CITY           SKY/WX    TMP DP  RH WIND       PRES   REMARKS
ROCKFORD       LGT RAIN  39  37  92 CALM      29.49F
FREEPORT*      CLOUDY    36  36 100 CALM      29.50R
ROCHELLE*      CLOUDY    38  34  85 SW12      29.50S WCI  30
DE KALB*       CLOUDY    39  37  92 SW9       29.49S WCI  32
PERU*          FAIR      33  30  88 W5        29.53F WCI  29
$$

ILZ005-006-012>014-019>023-230400-
NORTHEAST ILLINOIS

CITY           SKY/WX    TMP DP  RH WIND       PRES   REMARKS
CHICAGO-OHARE  CLOUDY    41  36  82 W8        29.48F
CHICAGO-MIDWAY LGT RAIN  42  34  73 W14G24    29.50F
AURORA         CLOUDY    38  35  89 SW9       29.50S WCI  31
LANSING*       CLOUDY    40  36  84 W10       29.54R
JOLIET*        MOCLDY    40  36  87 SW3       29.53R
WAUKEGAN       CLOUDY    41  38  89 SW21G32   29.46S
DUPAGE AIRPORT CLOUDY    38  37  97 SW7       29.49S WCI  33
KANKAKEE*      CLOUDY   N/A N/A N/A W6        29.56S
WHEELING       CLOUDY    42  37  82 W8        29.49F
MORRIS*        MOCLDY    37  35  91 SW6       29.52S WCI  32
NORTHERLY ISL    N/A     42  33  70 SW9         N/A
$$

LMZ740>746-230400-
SOUTHERN LAKE MICHIGAN

STATION/POSITION SKY/WX   TEMP    WIND        PRES    VSBY  WAVE
                          AIR SEA DIR/SP/G                  HT/PER
                          (F)     (DEG/KT/KT) (MB)    (MI)  (FT/S)
HARRISON CRIB              44     270/ 25/ 27   N/A
BURNHAM HARBOR             42     250/ 11/ 18   N/A
CALUMET HARBOR             43     250/ 10/ 19  998.5
BURNS HARBOR               40     260/ 19/ 23 1000.0R
MICHIGAN CITY              38     230/ 21/ 22   N/A
$$

ILZ025>027-034>036-040-047-049-050-058-095>099-230400-
WEST-CENTRAL ILLINOIS

CITY           SKY/WX    TMP DP  RH WIND       PRES   REMARKS
QUINCY         FLURRIES  35  33  92 SW20G25   29.53R WCI  24
GALESBURG*     RAIN      37  35  91 SW6       29.53S WCI  32
MACOMB*        LGT RAIN  37  35  94 S8        29.54S WCI  30
JACKSONVILLE*  DRIZZLE   38  33  84 SW22G29   29.56R WCI  27
PITTSFIELD*    LGT RAIN  37  35  92 SW12      29.55F WCI  29
$$

ILZ028>032-037-038-041>044-048-051>054-059>061-230400-
CENTRAL ILLINOIS

CITY           SKY/WX    TMP DP  RH WIND       PRES   REMARKS
BLOOMINGTON    CLOUDY    38  31  76 SW9       29.56R WCI  31
DECATUR        FAIR      39  32  76 SW9       29.57F WCI  33
PEORIA         LGT RAIN  40  32  73 SW8       29.54S
LACON*         FAIR      36  30  80 CALM      29.53S
LINCOLN*       CLOUDY    40  33  77 S3        29.56S
SPRINGFIELD    LGT RAIN  42  33  70 SW15G25   29.56R
TAYLORVILLE    CLOUDY    40  31  70 SW12      29.57S
$$

ILZ033-039-045-046-055>057-062-063-230400-
EAST-CENTRAL ILLINOIS

CITY           SKY/WX    TMP DP  RH WIND       PRES   REMARKS
CHAMPAIGN      MOCLDY    37  32  82 SW7       29.58S WCI  32
DANVILLE*      MOCLDY    38  36  89 W7        29.56S WCI  33
RANTOUL*       FAIR      39  35  86 SW6       29.58S WCI  34
MATTOON        CLOUDY    42  31  64 W10       29.59S
$$

ILZ079-100>102-230400-
SOUTHWEST ILLINOIS

CITY           SKY/WX    TMP DP  RH WIND       PRES   REMARKS
BELLEVILLE     CLOUDY    44  30  57 SW14G23   29.60S
CAHOKIA*       CLOUDY    45  28  51 SW12G28   29.60S
SPARTA*        CLOUDY    44  32  61 SW6       29.64F
$$

ILZ064>066-069>071-074>076-080>082-084>086-088>090-092>094-230400-
SOUTH-CENTRAL ILLINOIS

CITY           SKY/WX    TMP DP  RH WIND       PRES   REMARKS
CARBONDALE     CLOUDY    46  29  51 SW24G32   29.66S
EFFINGHAM*     MOCLDY    41  32  69 S8        29.63S
MARION         CLOUDY    46  28  48 SW12G18   29.68S
MT. VERNON     CLOUDY    45  30  55 SW16      29.64F
CENTRALIA*     CLOUDY    44  32  64 SW9       29.63S
SALEM*         CLOUDY    45  31  57 SW15      29.63S
METROPOLIS*    CLOUDY    47  32  55 SW15G24   29.72S
$$

ILZ067-068-072-073-078-083-087-091-230400-
SOUTHEAST ILLINOIS

CITY           SKY/WX    TMP DP  RH WIND       PRES   REMARKS
LAWRENCEVILLE  MOCLDY    45  33  63 W6        29.64R
FLORA*         CLOUDY    45  32  59 SW14      29.64S
FAIRFIELD*     CLOUDY    46  31  56 SW8       29.64S
HARRISBURG*    CLOUDY    48  32  54 W13G22    29.67S
ROBINSON*      FAIR      42  32  69 W13       29.64S
CARMI*         CLOUDY    47  33  56 SW15      29.65S
$$

ABBREVIATIONS USED IN REMARKS
   TC - TEMPERATURE IN CELSIUS
  WCI - WIND CHILL INDEX
   HX - HEAT INDEX
  VSB - VISIBILITY
$$





USA.gov is the U.S. government's official web portal to all federal, state and local government web resources and services.